GW3101 Weather Reports


time (UTC)temp
F
wind
direction
speed
knots
gust
knots
rain 1hr
in
rain 24hr
in
rain mn
in
humidity
%
barometer
mb
20260502163937 51 170 4.3 5.2 0.00 0.05 0.05 87 1010.4
20260502163433 51 236 0.0 0.0 0.00 0.05 0.05 88 1010.2
20260502162931 50 166 1.7 1.7 0.00 0.05 0.05 87 1010.4
20260502162428 50 160 1.7 1.7 0.00 0.05 0.05 88 1010.5
20260502161926 50 186 1.7 2.6 0.00 0.05 0.05 87 1010.4
20260502161421 51 166 0.9 0.9 0.00 0.05 0.05 88 1010.5
20260502160919 50 197 0.0 0.0 0.00 0.05 0.05 89 1010.3
20260502160417 50 194 1.7 2.6 0.00 0.05 0.05 89 1010.5
20260502151855 50 161 1.7 1.7 0.00 0.05 0.05 90 1010.9
20260502151351 50 238 0.9 0.9 0.00 0.05 0.05 91 1011.1
20260502150850 50 177 0.0 0.9 0.00 0.05 0.05 91 1011.0
20260502150345 50 201 1.7 2.6 0.00 0.05 0.05 91 1010.9
20260502130734 48 70 0.0 0.0 0.00 0.05 0.05 98 1011.1
20260502130231 48 101 1.7 1.7 0.00 0.05 0.05 98 1011.0
20260502123717 47 6 1.7 1.7 0.05 0.05 0.05 99 1011.1
20260502123214 46 106 0.0 0.0 0.12 0.05 0.05 99 1011.5
20260502122710 46 138 0.0 0.0 0.12 0.04 0.04 99 1011.7
20260502122207 46 138 0.0 0.0 0.05 0.03 0.03 98 1012.0
20260502121706 46 137 0.0 0.0 0.00 0.02 0.02 98 1012.0
20260502121203 46 129 0.0 0.9 0.00 0.02 0.02 98 1011.8
20260502120659 46 94 0.0 0.0 0.07 0.02 0.02 98 1011.6
20260502120156 46 94 0.0 0.9 0.07 0.02 0.02 98 1011.8
20260502115654 46 100 0.0 0.0 0.00 0.01 0.01 98 1011.8
20260502115150 46 122 0.0 0.0 0.00 0.01 0.01 98 1011.6
20260502114646 46 123 0.0 0.0 0.00 0.01 0.01 98 1011.9
20260502114143 46 122 0.0 0.0 0.00 0.01 0.01 98 1011.7
20260502113641 46 122 0.0 0.0 0.00 0.01 0.01 98 1011.9
20260502113139 46 126 0.0 0.0 0.00 0.01 0.01 98 1011.4
20260502112636 46 125 0.0 0.0 0.00 0.01 0.01 98 1011.9
20260502112134 46 126 0.0 0.0 0.00 0.01 0.01 98 1011.6
20260502111631 45 127 0.0 0.0 0.00 0.01 0.01 98 1011.6
20260502111128 45 117 0.0 0.0 0.00 0.01 0.01 98 1011.2
20260502110626 45 116 0.0 0.0 0.00 0.01 0.01 98 1011.2
20260502110123 45 115 0.0 0.0 0.00 0.01 0.01 98 1011.0
20260502105621 45 115 0.0 0.0 0.00 0.01 0.01 98 1010.6
20260502105117 45 115 0.0 0.0 0.00 0.01 0.01 98 1010.8
20260502104615 45 114 0.0 0.0 0.00 0.01 0.01 98 1010.7
20260502104112 44 118 0.0 0.0 0.05 0.01 0.01 98 1010.7
20260502103609 44 144 0.0 0.0 0.05 0.01 0.01 98 1010.9
20260502103108 44 187 0.0 0.0 0.00 0.00 0.00 97 1011.2
20260502102604 44 187 0.0 0.0 0.00 0.00 0.00 97 1011.0
20260502102101 44 187 0.0 0.0 0.00 0.00 0.00 97 1011.1
20260502101559 44 187 0.0 0.0 0.00 0.00 0.00 97 1011.0
20260502101057 44 250 0.0 0.0 0.00 0.00 0.00 97 1010.9
20260502100555 44 328 0.0 0.0 0.00 0.00 0.00 97 1010.8
20260502091530 44 89 0.0 0.0 0.00 0.00 0.00 95 1010.3
20260502091027 44 89 0.0 0.0 0.00 0.00 0.00 95 1010.4
20260502090524 45 89 0.0 0.0 0.00 0.00 0.00 95 1010.4
20260502071419 45 120 0.0 0.0 0.00 0.00 0.00 91 1010.5
20260502070916 45 121 0.0 0.0 0.00 0.00 0.00 91 1010.7
20260502070414 45 120 0.0 0.0 0.00 0.00 0.00 91 1010.4
20260502065912 45 121 0.0 0.0 0.00 0.00 0.00 91 1010.5
20260502065411 45 120 0.0 0.0 0.00 0.00 0.00 91 1010.6
20260502064908 45 120 0.0 0.0 0.00 0.00 0.00 91 1010.7
20260502064406 45 122 0.0 0.0 0.00 0.00 0.00 91 1010.5
20260502063903 45 120 0.0 0.0 0.00 0.00 0.00 91 1010.6
20260502063400 45 118 0.0 0.0 0.00 0.00 0.00 91 1010.5
20260502062858 45 118 0.0 0.0 0.00 0.00 0.00 91 1011.0
20260502062355 45 118 0.0 0.0 0.00 0.00 0.00 90 1010.6
20260502061854 45 119 0.0 0.0 0.00 0.00 0.00 90 1010.9
20260502061351 45 118 0.0 0.0 0.00 0.00 0.00 90 1010.8
20260502060847 45 119 0.0 0.0 0.00 0.00 0.00 90 1011.0
20260502060343 45 119 0.0 0.0 0.00 0.00 0.00 90 1010.9
20260502055840 45 119 0.0 0.0 0.00 0.00 0.00 90 1010.8
20260502055338 45 118 0.0 0.0 0.00 0.00 0.00 89 1010.9
20260502054837 45 119 0.0 0.0 0.00 0.00 0.00 89 1010.8
20260502054334 45 119 0.0 0.0 0.00 0.00 0.00 89 1010.9
20260502053832 45 119 0.0 0.0 0.00 0.00 0.00 88 1010.8
20260502053329 46 119 0.0 0.0 0.00 0.00 0.00 88 1011.0
20260502052826 46 119 0.0 0.0 0.00 0.00 0.00 88 1011.0
20260502052324 46 119 0.0 0.0 0.00 0.00 0.00 88 1011.0
20260502051822 45 144 0.0 0.0 0.00 0.00 0.00 88 1011.1
20260502051321 45 144 0.0 0.0 0.00 0.00 0.00 88 1011.1
20260502050816 45 144 0.0 0.0 0.00 0.00 0.00 88 1010.9
20260502050313 45 144 0.0 0.0 0.00 0.00 0.00 88 1011.2
20260502045810 45 144 0.0 0.0 0.00 0.00 0.00 88 1011.2
20260502045306 45 144 0.0 0.0 0.00 0.00 0.00 87 1011.0
20260502044804 45 144 0.0 0.0 0.00 0.00 0.00 87 1011.2
20260502044259 45 144 0.0 0.0 0.00 0.00 0.00 86 1011.2
20260502043757 45 144 0.0 0.0 0.00 0.00 0.00 86 1010.9
20260502043254 46 144 0.0 0.0 0.00 0.00 0.00 86 1010.9
20260502042754 46 144 0.0 0.0 0.00 0.00 0.00 86 1011.0
20260502042251 46 144 0.0 0.0 0.00 0.00 0.00 86 1010.9
20260502041749 46 144 0.0 0.0 0.00 0.00 0.00 85 1011.0
20260502041246 46 144 0.0 0.0 0.00 0.00 0.00 86 1011.0
20260502040743 45 144 0.0 0.0 0.00 0.00 0.00 84 1011.0
20260502040240 45 144 0.0 0.0 0.00 0.00 0.00 84 1011.1
20260502035736 46 144 0.0 0.0 0.00 0.00 0.00 84 1011.3
20260502035233 46 144 0.0 0.0 0.00 0.00 0.00 83 1011.2
20260502034730 46 144 0.0 0.0 0.00 0.00 0.00 83 1011.2
20260502034228 46 144 0.0 0.0 0.00 0.00 0.00 83 1011.1
20260502033726 46 144 0.0 0.0 0.00 0.00 0.00 83 1011.2
20260502033224 46 144 0.0 0.0 0.00 0.00 0.00 82 1011.2
20260502032720 47 144 0.0 0.0 0.00 0.00 0.00 81 1011.0
20260502032216 47 144 0.0 0.0 0.00 0.00 0.00 78 1010.9
20260502031714 48 144 0.0 0.0 0.00 0.00 0.00 77 1011.0
20260502031212 49 144 0.0 0.0 0.00 0.00 0.00 76 1010.9
20260502030711 49 144 0.0 0.0 0.00 0.00 0.00 75 1011.3
20260502030208 50 163 0.0 0.0 0.00 0.00 0.00 75 1011.2
20260502025705 49 170 0.9 0.9 0.00 0.00 0.00 74 1011.3
20260502025203 50 169 0.0 0.0 0.00 0.00 0.00 74 1011.1
20260502024700 50 169 0.0 0.0 0.00 0.00 0.00 75 1011.1
20260502024158 50 170 0.0 0.0 0.00 0.00 0.00 72 1011.2
20260502023656 50 139 0.0 0.0 0.00 0.00 0.00 74 1011.3
20260502023153 49 207 0.0 0.0 0.00 0.00 0.00 75 1011.2
20260502022650 50 99 0.0 0.0 0.00 0.00 0.00 78 1011.2
20260502022147 50 98 0.0 0.0 0.00 0.00 0.00 73 1011.1
20260502021644 50 99 0.0 0.0 0.00 0.00 0.00 70 1011.0
20260502021141 49 92 0.0 0.0 0.00 0.00 0.00 71 1011.3
20260502020638 49 90 0.0 0.0 0.00 0.00 0.00 75 1011.1
20260502020135 49 91 0.0 0.0 0.00 0.00 0.00 78 1011.2
20260502015633 49 90 0.0 0.0 0.00 0.00 0.00 74 1011.0
20260502015129 48 114 0.0 0.0 0.00 0.00 0.00 71 1011.1
20260502014627 48 31 0.0 0.0 0.00 0.00 0.00 78 1011.2
20260502014124 47 30 0.0 0.0 0.00 0.00 0.00 77 1011.1
20260502013620 47 30 0.0 0.0 0.00 0.00 0.00 78 1011.0
20260502013115 47 30 0.0 0.0 0.00 0.00 0.00 77 1010.8
20260502012613 47 30 0.0 0.0 0.00 0.00 0.00 78 1010.9
20260502012111 47 1 0.0 0.9 0.00 0.00 0.00 79 1010.8
20260502011607 47 208 0.9 1.7 0.00 0.00 0.00 78 1011.0
20260502011103 47 121 0.0 0.0 0.00 0.00 0.00 77 1010.8
20260502010601 47 120 0.0 0.0 0.00 0.00 0.00 78 1010.7
20260502010057 47 121 0.0 0.9 0.00 0.00 0.00 78 1010.6
20260502005555 45 62 0.0 0.0 0.00 0.00 0.00 78 1010.4
20260502005053 45 63 0.0 0.0 0.00 0.00 0.00 77 1010.3
20260502004548 45 63 0.0 0.0 0.00 0.00 0.00 77 1010.3
20260502004045 45 63 0.0 0.0 0.00 0.00 0.00 76 1010.5
20260502003543 45 63 0.0 0.0 0.00 0.00 0.00 77 1010.3
20260502003040 45 63 0.0 0.0 0.00 0.00 0.00 76 1010.2
20260502002536 45 63 0.0 0.0 0.00 0.00 0.00 75 1010.1
20260502002033 46 63 0.0 0.0 0.00 0.00 0.00 75 1010.2
20260502001531 46 63 0.0 0.0 0.00 0.00 0.00 72 1009.8
20260502001028 47 63 0.0 0.0 0.00 0.00 0.00 70 1009.8
20260502000526 48 63 0.0 0.0 0.00 0.00 0.00 68 1009.8
20260502000023 49 63 0.0 0.0 0.00 0.00 0.00 67 1009.5
20260501235519 49 63 0.0 0.0 0.00 0.00 0.00 62 1009.3
20260501235014 50 63 0.0 0.0 0.00 0.00 0.00 63 1009.5
20260501234510 51 63 0.0 0.0 0.00 0.00 0.00 63 1009.5
20260501234009 52 63 0.0 0.0 0.00 0.00 0.00 58 1009.4
20260501233507 52 64 0.0 0.0 0.00 0.00 0.00 57 1009.3
20260501233003 53 63 0.0 0.0 0.00 0.00 0.00 57 1009.5
20260501232459 54 63 0.0 0.0 0.00 0.00 0.00 51 1009.6
20260501231956 55 63 0.0 0.0 0.00 0.00 0.00 52 1009.2
20260501231455 55 63 0.0 0.0 0.00 0.00 0.00 50 1009.3
20260501230953 56 48 0.0 0.0 0.00 0.00 0.00 46 1009.0
20260501230451 57 357 0.0 0.0 0.00 0.00 0.00 47 1009.0
20260501225948 57 61 0.0 0.0 0.00 0.00 0.00 42 1009.0
20260501225446 57 262 0.0 0.0 0.00 0.00 0.00 42 1009.0
20260501224941 57 29 0.0 0.0 0.00 0.00 0.00 44 1008.9
20260501224439 57 93 0.0 0.0 0.00 0.00 0.00 44 1009.1
20260501223936 58 182 0.0 0.0 0.00 0.00 0.00 44 1008.9
20260501223432 58 45 0.0 0.9 0.00 0.00 0.00 45 1008.6
20260501222928 58 96 0.0 0.9 0.00 0.00 0.00 43 1008.9
20260501222426 58 238 0.0 0.9 0.00 0.00 0.00 45 1009.0
20260501221921 58 213 0.0 0.0 0.00 0.00 0.00 43 1008.9
20260501221419 58 216 3.5 4.3 0.00 0.00 0.00 42 1009.0
20260501220917 58 112 0.0 0.9 0.00 0.00 0.00 42 1009.2
20260501220414 59 87 0.0 0.0 0.00 0.00 0.00 40 1009.2
20260501215910 59 358 0.9 0.9 0.00 0.00 0.00 40 1009.0
20260501215407 59 127 0.0 0.0 0.00 0.00 0.00 40 1009.1
20260501214902 59 186 0.9 0.9 0.00 0.00 0.00 41 1009.1
20260501214357 59 82 0.9 1.7 0.00 0.00 0.00 40 1009.1
20260501213853 60 340 0.9 0.9 0.00 0.00 0.00 40 1009.1
20260501213350 60 253 0.0 0.9 0.00 0.00 0.00 37 1008.8
20260501212845 62 283 2.6 2.6 0.00 0.00 0.00 40 1008.9
20260501212343 62 155 0.9 0.9 0.00 0.00 0.00 40 1008.8
20260501211840 61 251 0.9 1.7 0.00 0.00 0.00 39 1008.8
20260501211337 61 44 1.7 1.7 0.00 0.00 0.00 38 1009.1
20260501210834 61 319 2.6 4.3 0.00 0.00 0.00 40 1008.9
20260501210331 60 23 0.9 2.6 0.00 0.00 0.00 41 1008.9
20260501205827 60 354 0.0 0.9 0.00 0.00 0.00 39 1008.7
20260501205324 61 303 0.9 0.9 0.00 0.00 0.00 39 1009.0
20260501204816 62 9 0.0 0.0 0.00 0.00 0.00 41 1008.8
20260501204313 61 70 0.0 0.9 0.00 0.00 0.00 37 1008.6
20260501203809 62 308 1.7 1.7 0.00 0.00 0.00 39 1008.7
20260501203306 61 300 1.7 2.6 0.00 0.00 0.00 40 1008.8
20260501202803 62 91 1.7 1.7 0.00 0.00 0.00 36 1008.6
20260501202300 62 35 1.7 2.6 0.00 0.00 0.00 39 1008.4
20260501201757 62 210 1.7 2.6 0.00 0.00 0.00 38 1008.6
20260501201253 62 246 2.6 2.6 0.00 0.00 0.00 37 1008.8
20260501200750 62 323 2.6 2.6 0.00 0.00 0.00 41 1008.4
20260501200247 62 172 2.6 4.3 0.00 0.00 0.00 37 1008.5
20260501195745 62 310 2.6 4.3 0.00 0.00 0.00 38 1008.4
20260501195240 62 64 2.6 2.6 0.00 0.00 0.00 36 1008.5
20260501194737 62 253 0.9 1.7 0.00 0.00 0.00 39 1008.6
20260501194233 61 195 1.7 2.6 0.00 0.00 0.00 35 1008.6
20260501193729 62 358 6.1 9.6 0.00 0.00 0.00 36 1008.7
20260501193228 62 330 0.9 1.7 0.00 0.00 0.00 40 1008.7
20260501192725 62 1 1.7 1.7 0.00 0.00 0.00 39 1008.7
20260501192222 62 36 3.5 5.2 0.00 0.00 0.00 42 1009.1
20260501191719 62 327 1.7 1.7 0.00 0.00 0.00 40 1008.9
20260501191216 62 29 0.0 0.9 0.00 0.00 0.00 41 1008.6
20260501190712 62 351 2.6 2.6 0.00 0.00 0.00 38 1008.7
20260501190208 61 272 2.6 2.6 0.00 0.00 0.00 40 1008.9
20260501185704 61 346 4.3 6.1 0.00 0.00 0.00 39 1008.7
20260501185200 61 329 2.6 2.6 0.00 0.00 0.00 40 1008.8
20260501184656 60 12 2.6 4.3 0.00 0.00 0.00 39 1008.9
20260501184156 61 21 3.5 4.3 0.00 0.00 0.00 40 1009.2
20260501183653 61 37 1.7 1.7 0.00 0.00 0.00 41 1009.0
20260501183150 61 335 4.3 5.2 0.00 0.00 0.00 45 1009.4
20260501182647 61 334 0.9 1.7 0.00 0.00 0.00 41 1009.2
20260501182143 61 110 0.9 1.7 0.00 0.00 0.00 42 1009.2
20260501181640 62 231 2.6 2.6 0.00 0.00 0.00 40 1009.0
20260501181137 61 220 1.7 4.3 0.00 0.00 0.00 46 1008.9
20260501180636 60 239 0.9 2.6 0.00 0.00 0.00 49 1009.1
20260501180131 59 328 1.7 1.7 0.00 0.00 0.00 46 1009.4
20260501175628 61 66 2.6 2.6 0.00 0.00 0.00 43 1009.2
20260501175126 61 238 1.7 2.6 0.00 0.00 0.00 44 1009.4
20260501174622 60 348 0.9 2.6 0.00 0.00 0.00 44 1009.5
20260501174120 59 341 4.3 6.1 0.00 0.00 0.00 45 1009.3
20260501173617 59 346 2.6 2.6 0.00 0.00 0.00 46 1009.3
20260501173114 59 322 4.3 4.3 0.00 0.00 0.00 46 1009.5
20260501172609 60 33 2.6 2.6 0.00 0.00 0.00 49 1009.6
20260501172104 61 202 4.3 6.1 0.00 0.00 0.00 49 1009.7
20260501171601 60 194 2.6 2.6 0.00 0.00 0.00 48 1009.4
20260501171058 59 63 0.9 1.7 0.00 0.00 0.00 49 1009.4
20260501170555 57 5 1.7 2.6 0.00 0.00 0.00 48 1009.4
20260501170052 59 211 5.2 7.8 0.00 0.00 0.00 50 1009.6
20260501165549 58 350 6.1 7.0 0.00 0.00 0.00 49 1009.7
20260501165047 58 221 0.9 0.9 0.00 0.00 0.00 51 1009.6
20260501164544 57 8 2.6 2.6 0.00 0.00 0.00 51 1009.5